Regional Weather Roundup
Issued by NWS Wakefield, VA

Home | Current Version | Previous Version | Text Only | Print | Product List | Glossary On
Versions: 1 2 3 4 5 6 7 8 9 10 11 12 13 14 15 16 17 18 19 20 21 22 23 24 25 26 27
000
ASUS41 KAKQ 141315
RWRAKQ

REGIONAL WEATHER ROUNDUP
NATIONAL WEATHER SERVICE WAKEFIELD VA
800 AM EST THU DEC 14 2017

Note: "fair" indicates few or no clouds below 12,000 feet with no
significant weather and/or obstructions to visibility. * = Denotes
station may not report precipitation (e.g., rain,snow,etc.),
thunder or fog.

VAZ042-051-052>054-056-141400-
NORTHERN VIRGINIA

CITY           SKY/WX    TMP DP  RH WIND       PRES   REMARKS
WASH NATIONAL  PTCLDY    38  19  46 W6        29.67R
DULLES         PTCLDY    30  19  63 S3        29.66R
FORT BELVOIR   CLEAR     33  20  59 CALM      29.66R
QUANTICO       MOCLDY    39  20  46 W6        29.68R
FREDERICKSBRG* CLOUDY    39  22  51 W6        29.68R
STAFFORD*      CLOUDY    37  19  48 W3        29.71R
WARRENTON      CLOUDY    34  18  52 CALM      29.66R
CULPEPER*      MOCLDY    33  19  56 CALM      29.67R
MANASSAS*      PTCLDY    29  20  69 NW3       29.67R
LEESBURG*      PTCLDY    37  28  70 NW18G32   29.65R
WINCHESTER     MOCLDY    36  23  60 W20G31    29.66R WCI  25
FRONT ROYAL*   PTSUNNY   37  21  52 W23       29.65R
LURAY*         CLOUDY    39  23  52 W20G28    29.67R
$$

VAZ048-049-060>072-079>083-141400-
CENTRAL AND SOUTH CENTRAL VIRGINIA

CITY           SKY/WX    TMP DP  RH WIND       PRES   REMARKS
RICHMOND       MOCLDY    40  20  44 SW14      29.68R
CHESTERFIELD*  NOT AVBL
PETERSBURG*    CLEAR     36  18  48 SW9       29.71R
HANOVER        CLOUDY    41  18  39 SW10G20   29.68R
TAPPAHANNOCK*  CLOUDY    39  21  48 SW9       29.67R
QUINTON*       PTSUNNY   37  20  50 SW7       29.67R
CHARLOTTSVILLE MOCLDY    44  23  43 NW8G17    29.64R
GORDONSVILLE*  SUNNY     31  20  65 CALM      29.65R
ORANGE*        CLEAR     36  21  55 SE7       29.64R
LOUISA*        CLOUDY    34  19  53 CALM      29.70R
BUMPASS*       CLOUDY    37  17  44 W7        29.66R
FARMVILLE*     MOCLDY    37  22  54 SW6       29.67R
CREWE*         FAIR      35  20  53 SW7       29.68R
FORT PICKETT*  NOT AVBL
CHASE CITY*    FAIR      35  19  52 SW5       29.72R
CLARKSVILLE*   FAIR      32  21  64 SW7       29.73R
SOUTH HILL*    CLEAR     31  22  68 S7        29.78R
LAWRENCEVILLE* FAIR      33  20  59 SW6       29.72R
EMPORIA*       CLEAR     32  21  64 S3        29.76R
$$

VAZ088>098-141400-
SOUTHEAST VIRGINIA

CITY           SKY/WX    TMP DP  RH WIND       PRES   REMARKS
NORFOLK        CLEAR     40  22  48 SW14G21   29.72R
VIRGINIA BEACH PTCLDY    39  21  48 SW12      29.72R
NORFOLK NAVAL  PTCLDY    41  22  46 SW15      29.73R
WEST POINT*    MOCLDY   N/A N/A N/A SW13      29.69R
SALUDA*        FAIR      39  22  51 SW8G16    29.65R
NEWPORT NEWS   CLEAR     39  23  52 SW16      29.70R
LANGLEY AFB    CLEAR     40  23  50 SW18G25   29.70R
FORT EUSTIS    CLEAR     38  22  51 SW10      29.67R
WILLIAMSBURG*  CLEAR     39  23  52 W10G17    29.71R
HR EXEC AP*    FAIR      37  22  54 SW9       29.74R
FRANKLIN*      CLEAR     35  22  58 SW6       29.75R
US460-WAKEFLD  CLEAR     36  21  54 SW8       29.72R
$$

VAZ020-022-025-037-045-141400-
WEST CENTRAL AND SOUTHWEST VIRGINIA

CITY           SKY/WX    TMP DP  RH WIND       PRES   REMARKS
STAUNTON*      CLOUDY    39  23  52 W12G23    29.68R
WAYNESBORO*    CLOUDY    41  22  47 W10G25    29.64R
HOT SPRINGS VA CLOUDY    29  21  71 W21G39    29.60R WCI  16
LYNCHBURG      CLOUDY    33  20  58 SW7       29.67R
DANVILLE       CLEAR     30  19  63 SW3       29.75R
SOUTH BOSTON*  FAIR      35  17  49 SW6       29.74R
MARTINSVILLE   CLEAR     32  19  58 W6        29.76R
ROANOKE        MOCLDY    45  24  43 NW25G41   29.70R
BLACKSBURG     CLOUDY    39  26  59 W9G17     29.73R
DUBLIN*        CLOUDY    40  26  55 W8G28     29.72R
MARION*        CLOUDY    36  21  54 W26G33    29.72R WCI  24
HILLSVILLE*    CLEAR     35  22  59 W13G22    29.68R
RICHLANDS*     CLOUDY    35  23  61 W9        29.77R
WISE*          CLOUDY    34  30  86 NW9       29.80R
ABINGDON*      PTCLDY    35  23  63 W5        29.80R
$$

MDZ021>025-VAZ099-100-141400-
SOUTHERN MARYLAND AND THE DELMARVA PENINSULA

CITY           SKY/WX    TMP DP  RH WIND       PRES   REMARKS
PATUXENT RIVER CLOUDY    40  22  48 W12G22    29.66R
BAY BRIDGE APT CLOUDY    39  21  48 W10       29.64R
LEONARDTOWN    CLOUDY    37  23  56 W7G20     29.68R
DOVER          FLURRIES  36  29  74 W10       29.63R
GEORGETOWN     CLOUDY    39  26  59 W7        29.64R
EASTON         MOCLDY    41  21  45 NW9       29.68R
CAMBRIDGE      CLOUDY    41  23  48 W12G17    29.65R
SALISBURY      CLOUDY    40  27  59 W10       29.64R
OCEAN CITY     CLOUDY    40  27  59 W9        29.63R
WALLOPS ISLAND MOCLDY    44  27  51 W13G30    29.64R
ACCOMACK*      MOCLDY    43  28  54 SW13      29.66R
$$

NCZ012>017-030>032-141400-
NORTH CENTRAL AND EASTERN NORTH CAROLINA

CITY           SKY/WX    TMP DP  RH WIND       PRES   REMARKS
ROANOKE RAPIDS FAIR      32  23  69 CALM      29.76R
RALEIGH        PTCLDY    31  21  66 SW7       29.78R
ELIZABETH CITY CLEAR     40  27  59 SW12      29.76R
AHOSKIE*       CLEAR     32  23  69 CALM      29.77R
EDENTON*       CLEAR     42  28  56 W13G18    29.78R
CURRITUCK*     CLEAR     39  25  58 SW12G17   29.75R
KILL DEVIL HLS CLEAR     41  25  52 SW12G20   29.74R
MANTEO         CLEAR     42  27  55 W16       29.77R
CAPE HATTERAS  CLEAR     47  30  51 W13G23    29.80R
TARBORO*       NOT AVBL
GOLDSBORO      CLEAR     38  23  54 SW7       29.79R
WASHINGTON     CLEAR     37  24  60 SW7       29.80R
GREENVILLE     CLEAR     37  23  56 SW7       29.81R
NEW BERN       CLEAR     41  25  53 SW13      29.82R
WILMINGTON     CLEAR     43  27  53 W10       29.85R
$$

VAZ048-141400-
ELSEWHERE

CITY           SKY/WX    TMP DP  RH WIND       PRES   REMARKS
HARRISBURG PA  MOCLDY    26  23  88 NW8       29.65R FOG
BALTIMORE      CLOUDY    36  21  54 W12       29.64R
ANNAPOLIS      PTCLDY    37  21  52 W6        29.65R
ANDREWS AFB    CLEAR     35  17  49 W5        29.65R
PHILADELPHIA   CLOUDY    34  25  69 SW10      29.60R
HENDERSON NC   CLEAR     30  18  59 SW7       29.75R
GREENSBORO     PTCLDY    31  20  63 SW7       29.75R
ROCKY MOUNT    CLEAR     35  24  64 SW8       29.78R
$$

VAZ100-141400-
MARINE

STATION/POSITION TIME  TEMP    WIND        PRES    WAVE   SWELL
                       AIR SEA DIR/SP/G            HT/PER HT/PER
                 (UTC) (F)     (DEG/KT/KT) (MB)    (FT/S) (FT/S)
BRANDYWINE LGT   1242   40     270/ 22/ 28 1002.9R
CAPE MAY NJ      1242   40 38  280/ 22/ 25 1002.2R
LEWES DE         1242   38 44  260/ 12/ 16 1002.6R
15NM E FENWICK I 1250   45 52  240/ 25/ 29 1002.2R   6/ 7
OCEAN-CITY-INLET 1242   39 41  260/  8/ 10 1003.2R
WACHAPREAGUE VA  1242   43 37  230/  8/ 12 1004.1R
THOMAS POINT MD  1300   38 44  270/  9/ 11   N/A
GOOSES REEF MD   1250   41     270/ 12/ 16 1004.6R
COVE POINT MD    1242   40     300/ 12/ 16 1004.6R
SOLOMONS ISLAND  1242   41 47  300/  9/ 17 1004.0R
BISHOPS HEAD MD  1242   42 35  250/ 20/ 25 1003.5R
PINEY POINT MD   1236          260/ 13/ 16   N/A
POTOMAC MD       1250   42     240/ 19/ 23 1002.8R
CAMBRIDGE MD     1242   41 41              1004.7R
LEWISETTA VA     1242   40 41  260/ 13/ 18 1003.7R
RAPPAHANNOCK LGT 1236          230/ 27/ 30 1004.1R
STINGRAY PT      1250   42     250/ 19/ 23 1004.2R
YORK RVR RNG VA  1236   42     250/ 20/ 23 1005.0R
YORKTOWN VA      1236   40 48  240/ 13/ 18 1004.6R
JAMESTOWN VA     1250          230/ 17/ 21   N/A
DOMINION TERM VA 1236   40     240/ 17/ 23 1005.8R
KIPTOPEKE VA     1236      43  250/ 21/ 27   N/A
CAPE HENRY VA    1236   40     240/ 11/ 17   N/A
WILLOUBY STN VA  1236          240/ 25/ 27 1004.8R
S CRANEY ISL VA  1236   39     230/ 14/ 18 1005.8R
CAPE HENRY BUOY  1230      53                N/A     5/ 5
1ST LANDING BUOY 1250   43     250/ 21/ 25 1005.5R
CAPE CHARLES BUO 1251      52                N/A     5/ 4
64NM E OF VA BCH 1250   51 60  250/ 27/ 31 1005.3R   8/ 6
DUCK PIER NC     1236   42 52  240/ 20/ 25 1006.6R
44100 DUCK FRF   1245      54                N/A     4/ 4
44056 DUCK FRF   1300      55                N/A     2/ 3
OREGON INLET NC  1236   42 41  230/ 19/ 22 1007.5R
HATTERAS NC      1236   47 50  260/ 18/ 23 1008.3R
DIAMOND SHLS NC  1250   58 74  250/ 25/ 31 1008.7R  10/ 8   5/ 8
CAPE LOOKOUT NC  1200          250/ 22/ 26 1009.4R
$$




USA.gov is the U.S. government's official web portal to all federal, state and local government web resources and services.